Wind_Speed
65 65 65 65 64 65 65 65 65 65 66 66 66 66 66 66 66 66 66 66 66 66 66 66 66 66 67 67 67 67 67 67 67 67 68 68 68 68 68 68 68 68 68 68 68 69 69 69 69 69 69 69 70 70 70 70 70 70 69 69 69 68 67 66 65 64 64 64 64 64 65 65 65 64 64 62 61 59 58 57 55 54 57 66 76 83
67 66 66 66 66 66 66 66 66 66 67 67 67 67 67 67 67 67 67 67 67 67 67 67 67 67 67 67 67 68 68 68 68 68 68 68 68 69 69 69 69 69 69 69 69 70 70 70 70 70 71 71 71 71 71 71 71 71 70 70 70 69 68 67 66 65 64 64 64 64 65 65 65 65 64 62 60 59 57 55 53 52 56 67 77 83
69 68 68 67 67 67 67 67 67 67 67 68 68 68 68 68 68 68 68 68 68 68 68 68 68 68 68 68 68 68 68 68 68 69 69 69 69 70 70 70 70 70 70 70 71 71 71 71 72 72 72 72 72 72 72 72 72 72 71 71 71 70 69 68 67 65 65 64 64 64 65 65 65 65 64 62 60 58 56 53 51 51 57 68 78 84
70 70 70 69 69 69 68 68 68 68 69 69 69 69 70 70 70 70 70 69 69 69 69 69 69 69 69 69 69 69 69 69 70 70 70 70 70 71 71 71 71 72 72 72 72 72 72 73 73 73 73 74 74 74 74 74 73 73 73 72 72 71 70 69 67 66 65 65 64 64 64 64 64 64 64 62 60 58 55 52 50 52 58 69 78 83
72 72 71 71 70 70 70 70 69 69 70 70 70 71 71 71 71 71 71 71 71 71 70 70 70 70 70 70 70 70 71 71 71 71 71 71 71 72 72 72 73 73 73 73 73 74 74 74 74 75 75 75 75 75 75 75 75 74 74 74 73 72 71 70 69 67 66 65 65 64 64 64 64 64 63 62 59 57 54 51 50 53 60 69 77 81
73 73 73 72 72 72 71 71 71 71 71 71 71 72 72 72 72 72 72 72 72 72 72 72 72 71 71 72 72 72 72 72 72 72 72 73 73 73 73 74 74 74 75 75 75 75 75 76 76 76 76 77 77 77 76 76 76 76 75 75 74 73 72 71 70 68 67 66 65 65 64 63 63 63 63 61 59 56 53 51 51 55 60 69 76 80
74 74 74 73 73 73 73 72 72 72 72 72 72 73 73 73 73 73 74 74 74 73 73 73 73 73 73 73 73 73 73 73 73 74 74 74 74 75 75 75 76 76 76 76 77 77 77 77 77 78 78 78 78 78 78 78 78 77 77 76 76 75 74 73 71 70 68 67 66 65 64 63 62 62 62 61 58 55 53 52 53 56 61 69 75 78
74 74 74 74 74 74 74 74 73 73 73 73 73 74 74 74 74 74 75 75 75 75 75 75 75 74 74 74 74 74 74 75 75 75 76 76 76 76 77 77 77 77 78 78 78 78 79 79 79 79 79 79 79 79 79 79 79 79 78 78 77 77 76 74 73 72 70 69 67 66 64 62 61 61 61 60 58 55 53 52 54 57 62 69 75 78
73 74 74 74 74 74 75 75 74 74 74 74 74 74 75 75 75 76 76 76 76 76 76 76 76 76 76 76 76 76 76 76 76 77 77 78 78 78 78 79 79 79 79 80 80 80 80 80 80 81 81 81 81 81 80 80 80 80 80 79 79 78 77 76 75 73 72 70 68 66 64 62 61 60 60 59 57 55 53 53 55 59 63 70 74 78
73 73 74 74 74 75 75 75 76 75 75 75 75 75 76 76 77 77 77 77 77 77 77 78 78 78 78 78 77 77 78 78 78 78 79 79 80 80 80 80 81 81 81 81 81 81 81 82 82 82 82 82 82 82 82 82 81 81 81 81 81 80 79 78 77 75 74 72 70 67 65 62 60 59 59 58 57 55 53 54 57 61 65 70 75 78
74 74 74 74 75 75 75 76 76 76 76 76 77 77 77 77 78 78 78 79 79 79 79 79 79 79 80 80 79 79 79 79 80 80 81 81 81 82 82 82 82 82 83 83 83 83 83 83 83 83 83 84 84 83 83 83 83 83 83 83 83 82 81 80 79 77 75 74 71 69 65 62 60 59 58 58 56 55 54 57 60 64 68 72 76 79
74 75 75 75 76 76 76 77 77 77 77 78 78 78 78 79 79 79 79 80 81 81 81 81 81 81 81 81 81 81 81 81 81 82 82 83 83 83 83 84 84 84 84 84 84 84 84 84 84 85 85 85 85 85 85 85 85 85 85 85 85 84 83 82 81 79 77 75 73 70 66 63 60 58 58 57 56 55 56 59 64 68 71 75 78 81
76 76 76 77 77 77 77 78 78 78 79 79 79 80 80 80 80 80 80 81 82 82 83 83 83 83 83 83 83 83 83 83 83 83 84 84 84 85 85 85 85 86 86 86 86 86 86 86 86 86 86 87 87 87 87 87 87 87 87 87 87 86 86 85 83 81 79 77 74 71 67 63 60 58 57 57 56 56 57 62 67 71 74 77 81 83
78 78 78 79 79 79 79 79 80 80 80 81 81 81 82 82 82 82 82 83 83 84 84 85 86 86 86 86 85 85 85 85 85 85 85 86 86 86 86 87 87 87 87 87 88 88 88 88 88 88 88 89 89 89 89 89 89 89 89 89 89 89 88 87 85 83 80 78 75 72 68 64 60 58 57 57 57 57 59 64 70 74 77 80 83 85
81 81 81 81 81 81 81 81 82 82 82 83 83 83 83 84 84 84 84 85 85 85 86 87 88 88 89 89 88 88 87 87 87 87 88 88 89 88 88 89 89 89 90 90 90 90 90 90 90 91 91 91 91 92 92 92 92 92 92 91 91 90 90 88 86 84 81 78 75 72 69 65 61 59 57 57 57 58 61 66 73 77 79 82 85 86
85 85 85 85 85 85 84 84 84 85 85 85 85 85 85 86 86 86 86 87 87 87 88 88 89 90 91 92 91 91 90 90 90 90 91 91 92 91 91 91 91 92 92 92 92 93 93 93 93 93 94 94 94 94 94 94 94 94 94 93 93 92 91 89 87 85 82 78 75 72 69 65 62 59 58 57 58 59 62 68 75 80 82 85 87 88
89 88 88 88 88 88 88 88 87 87 87 87 87 88 88 88 88 89 89 89 89 89 90 90 91 92 93 94 94 94 93 93 93 93 94 95 95 95 94 94 94 95 95 95 95 95 95 95 96 96 96 96 96 96 96 96 96 96 95 95 94 93 91 90 87 85 81 78 75 72 69 66 63 60 58 58 58 60 63 70 77 83 85 88 89 91
92 92 92 92 92 92 91 91 91 90 90 90 90 90 91 91 91 91 91 91 91 92 92 93 93 94 95 96 97 97 96 96 96 96 97 98 98 99 98 98 97 98 98 98 98 97 97 98 98 98 98 98 98 98 98 97 97 97 96 95 94 93 91 90 87 84 81 77 74 71 69 66 64 61 59 58 59 61 64 71 79 85 88 90 92 93
96 96 96 95 95 95 95 94 94 94 93 93 93 93 93 93 93 93 93 93 94 94 94 94 95 96 96 97 99 99 99 98 98 98 99 100 100 101 101 101 100 100 100 100 100 99 99 99 99 99 99 99 99 99 98 98 97 97 96 95 94 92 91 89 86 83 80 76 73 71 69 67 64 62 60 59 60 61 65 72 80 87 91 93 94 95
99 99 99 99 98 98 98 98 97 97 96 96 96 96 96 96 96 96 96 96 96 96 96 96 96 97 97 98 99 100 100 100 100 100 100 101 102 102 103 102 102 102 102 102 101 101 100 100 100 100 100 99 99 99 98 98 97 96 95 94 93 92 90 88 86 82 79 75 72 70 68 67 65 63 62 60 60 62 65 72 80 89 93 95 96 97
102 102 102 102 101 101 101 101 101 100 99 99 99 98 98 98 98 98 98 98 98 98 98 98 98 98 98 99 100 101 101 101 101 101 101 101 102 103 103 103 103 103 103 103 102 102 101 100 100 100 100 99 99 98 98 97 96 95 94 93 92 90 89 87 84 81 78 75 71 69 67 66 66 65 63 62 61 62 65 71 80 89 95 98 99 99
104 104 104 104 104 104 104 104 104 103 103 102 101 101 101 100 100 100 100 100 100 99 99 99 99 99 99 99 100 101 101 101 101 101 101 101 102 103 103 103 103 103 103 103 102 102 101 100 100 100 99 99 98 98 97 96 95 94 93 92 91 89 87 86 83 80 77 74 70 68 67 66 66 66 65 64 62 63 65 71 79 89 96 100 101 102
105 105 106 106 106 106 106 106 106 106 105 104 104 103 103 102 102 102 102 101 101 101 100 100 100 100 100 100 101 101 101 101 101 101 101 101 102 103 103 103 102 102 102 102 102 101 101 100 100 100 99 99 98 97 96 95 94 93 92 91 89 88 86 84 82 79 76 73 70 68 66 66 66 67 66 65 64 64 65 70 77 87 96 102 104 105
106 107 107 107 108 108 108 108 108 107 107 107 106 106 105 104 104 103 103 103 102 102 101 101 101 101 101 101 101 101 101 101 101 101 100 101 101 102 102 102 102 102 102 102 102 101 100 100 100 99 99 98 98 97 96 95 93 92 91 90 88 87 85 83 81 79 76 72 69 67 66 66 66 67 68 67 66 65 66 69 76 84 94 102 106 107
108 108 108 109 109 109 109 109 109 109 108 108 108 107 106 106 105 105 104 104 103 102 102 101 101 101 101 101 101 102 102 102 101 101 100 101 101 101 101 101 101 101 102 102 101 100 100 100 99 99 99 98 97 96 95 94 93 91 90 89 87 86 84 82 80 78 75 72 69 67 66 66 67 68 69 69 69 67 67 69 74 82 91 100 107 109
109 109 109 109 109 109 109 109 109 109 109 109 108 108 107 107 106 106 105 105 104 103 103 102 102 102 102 102 102 102 102 102 102 101 101 101 101 101 101 101 101 101 101 101 101 100 99 99 99 99 98 97 96 95 94 93 92 91 89 88 86 85 83 82 80 78 75 73 70 67 66 66 67 68 70 71 71 70 69 69 72 79 88 97 105 110
110 110 110 110 110 110 110 110 110 110 110 109 109 109 108 107 107 107 106 106 105 104 103 103 103 103 102 102 102 102 102 102 102 102 102 101 101 101 101 101 101 100 100 100 100 99 99 99 98 98 97 97 96 95 94 93 91 90 89 87 86 85 83 82 80 78 76 73 71 68 66 66 67 69 70 72 73 72 71 71 72 76 84 93 102 110
111 111 111 111 111 111 111 110 110 110 110 110 110 109 109 108 108 108 107 107 106 105 105 104 104 104 103 103 103 103 103 103 103 103 102 101 101 101 101 101 101 100 100 100 99 99 98 98 98 97 97 96 96 95 94 93 91 90 89 87 86 85 83 82 80 79 77 75 72 70 68 67 67 69 71 73 74 74 73 73 73 75 81 89 98 107
111 111 111 111 111 111 111 111 111 111 111 111 111 110 110 109 109 109 109 108 107 106 106 106 105 105 104 104 104 104 104 104 104 104 103 102 102 102 102 101 101 100 100 99 98 98 98 97 97 96 96 96 95 95 94 93 92 90 89 88 87 85 84 83 81 80 78 76 74 71 69 68 68 69 71 73 75 76 76 75 75 75 79 85 93 102
112 112 112 112 112 112 112 112 111 111 111 111 111 111 111 110 110 110 109 109 108 108 108 107 107 106 105 105 105 104 105 105 105 105 103 103 103 103 102 101 101 101 100 99 98 98 97 97 97 96 96 95 95 95 94 93 93 92 90 89 88 86 85 84 82 81 80 78 76 73 72 70 70 70 72 74 76 77 78 77 77 77 78 82 89 97
112 112 113 113 113 112 112 112 112 112 112 112 112 112 112 111 111 111 110 110 110 109 109 109 108 107 107 106 106 106 106 107 106 106 104 104 104 104 103 102 102 101 100 99 98 98 98 97 97 96 96 95 95 95 95 94 94 93 92 91 89 88 87 86 84 83 81 80 78 76 74 72 71 72 73 75 77 79 80 80 79 79 79 81 86 92
113 113 113 113 113 113 113 113 113 113 113 113 113 113 113 112 112 112 112 111 111 111 110 110 110 109 108 107 107 107 107 108 107 107 106 105 105 105 104 103 103 102 101 100 99 99 98 97 97 97 96 96 96 96 95 95 95 94 93 92 91 90 89 88 86 85 83 82 80 78 77 75 74 73 74 75 78 80 81 82 82 81 81 82 85 89
113 114 114 114 114 114 114 114 114 114 114 114 114 114 114 113 113 113 113 113 112 112 112 111 111 110 110 109 109 108 108 108 108 108 107 107 106 106 105 104 104 103 103 102 101 100 99 98 98 97 97 97 97 97 96 96 96 95 95 94 93 93 92 90 89 87 86 84 82 81 79 78 76 75 75 76 78 80 82 83 84 84 84 84 85 88
114 114 115 115 115 115 115 115 115 115 115 115 115 115 115 114 114 114 114 114 113 113 113 112 112 111 111 110 110 110 110 110 110 109 108 108 108 107 106 106 105 105 104 103 103 102 101 100 99 98 98 98 98 98 98 97 97 97 96 96 95 95 94 93 92 90 88 87 85 84 82 81 79 77 77 77 79 81 83 85 86 86 86 86 87 88
114 115 115 116 116 116 116 116 117 117 117 116 116 116 116 115 115 115 115 115 114 114 114 113 113 112 112 111 111 111 111 111 111 110 110 109 109 109 108 107 107 107 106 105 105 104 103 102 101 100 99 99 99 99 99 99 99 98 98 97 97 97 96 95 94 93 91 90 88 87 85 83 82 80 79 79 80 82 84 86 87 88 88 89 89 89
115 116 116 117 117 117 117 118 118 118 118 117 117 117 117 116 116 116 116 116 115 115 115 114 114 113 113 112 112 112 112 112 112 111 111 111 111 110 110 109 109 108 108 108 107 106 105 104 103 102 101 101 101 101 101 100 100 100 99 99 99 98 98 98 97 96 95 93 92 90 88 86 85 83 82 81 81 83 85 87 89 90 90 91 91 92
116 117 117 118 118 118 118 119 119 119 118 118 118 118 118 117 117 117 117 116 116 116 115 115 114 114 113 113 112 112 113 112 112 113 113 113 112 112 111 111 111 110 110 110 109 108 107 106 105 104 103 103 103 102 102 102 102 101 101 101 100 100 100 100 99 99 98 97 95 93 92 90 88 86 84 83 83 84 86 88 90 91 92 93 94 94
118 118 118 118 119 119 119 119 119 119 119 119 119 119 118 118 118 118 117 117 117 116 116 116 115 115 114 114 113 113 113 113 114 114 114 114 114 113 113 113 112 112 112 112 111 110 110 109 108 107 106 105 105 104 104 104 103 103 103 103 102 101 101 101 101 101 101 100 99 97 95 93 91 89 88 86 85 85 86 89 91 93 94 95 96 96
118 118 119 119 119 119 119 119 119 119 119 119 119 119 119 119 119 118 118 118 117 117 117 116 116 115 115 115 114 114 114 114 115 115 115 115 115 115 115 115 114 114 114 113 113 112 112 111 110 109 109 108 107 106 106 106 106 106 105 105 104 104 104 104 103 103 103 103 102 100 99 97 95 93 91 89 88 87 88 90 92 94 95 97 98 98
118 119 119 119 119 119 119 119 119 119 119 119 119 119 119 119 119 119 119 118 118 118 117 117 116 116 116 115 115 115 115 116 116 116 117 117 117 116 116 116 116 116 116 115 115 114 114 113 113 112 111 110 110 109 108 108 108 108 107 107 107 107 107 106 106 105 105 105 104 103 102 101 99 97 95 93 91 90 90 91 92 94 97 98 99 100
118 118 118 118 118 118 118 119 119 119 119 119 119 119 119 119 119 119 119 119 119 118 118 118 117 117 116 116 116 116 117 117 118 118 118 118 118 118 118 118 118 117 117 117 116 116 116 115 115 114 113 112 112 111 111 110 110 110 110 110 110 110 109 108 108 108 107 107 106 106 105 104 102 101 99 97 95 93 92 92 93 95 98 99 101 102
118 118 118 118 118 118 118 118 118 118 118 118 119 119 119 119 119 119 119 119 119 119 119 118 118 118 117 117 117 117 118 118 119 119 119 119 120 120 119 119 119 119 119 118 118 118 117 117 116 116 115 114 113 113 112 112 112 112 112 112 112 112 111 111 110 110 110 109 109 108 107 106 105 104 102 100 99 97 95 94 94 96 98 100 102 104
117 117 117 117 117 117 117 117 118 118 118 118 118 119 119 119 119 119 119 119 119 119 119 119 118 118 118 118 118 118 118 119 119 120 120 121 121 121 121 121 121 120 120 119 119 119 118 118 117 117 116 115 115 114 114 114 113 113 114 114 114 114 114 113 113 112 112 111 111 110 109 108 108 106 105 104 102 100 98 97 97 97 99 102 104 106
117 117 117 117 117 117 117 117 117 117 117 118 118 118 119 119 119 119 119 119 119 119 119 119 118 118 118 118 118 119 119 119 120 120 121 121 122 122 122 122 122 121 121 121 120 120 119 119 118 118 117 116 116 115 115 115 115 115 115 115 115 115 116 116 115 114 113 113 113 112 112 111 110 108 107 106 105 104 102 101 100 100 101 103 105 107
117 116 116 116 116 116 116 117 117 117 117 117 118 118 118 118 118 118 119 119 119 119 119 119 118 118 118 119 119 119 119 119 120 120 121 122 122 123 123 123 123 122 122 121 121 120 120 120 119 118 117 116 116 116 116 115 115 115 116 116 116 116 117 116 116 115 115 115 115 115 114 113 112 110 109 109 108 107 106 105 103 103 103 104 106 108
117 116 116 116 116 116 116 116 117 117 117 117 117 118 118 118 118 118 118 118 119 119 119 119 119 119 119 119 119 119 119 119 120 120 121 122 122 123 123 123 123 123 122 122 121 121 120 120 119 119 118 117 117 116 116 116 116 116 116 116 117 117 117 117 117 117 117 117 117 117 116 115 114 113 112 111 110 110 109 108 107 106 105 106 107 109
116 116 116 116 116 116 116 116 116 116 116 117 117 117 117 118 118 118 118 119 119 119 119 119 119 119 119 119 119 119 120 120 120 120 121 121 122 123 123 124 124 124 123 123 122 121 120 120 119 118 118 118 117 117 116 116 116 116 116 116 116 116 117 117 117 117 117 117 118 118 117 117 116 115 115 114 113 112 111 111 110 109 108 108 109 110
116 116 116 116 116 116 116 116 116 116 116 117 117 117 117 118 118 118 119 119 119 119 119 119 120 120 120 120 120 120 120 120 120 120 121 121 122 122 123 124 124 124 124 123 123 122 121 120 119 118 118 118 117 117 116 116 116 116 116 116 116 116 116 116 117 117 117 118 118 119 118 118 118 118 117 116 115 114 113 113 113 112 112 111 111 112
116 116 116 115 115 115 115 115 116 116 116 116 117 117 117 118 118 118 119 119 119 119 120 120 120 120 120 120 120 120 120 120 120 120 121 121 121 122 123 124 124 124 124 124 124 123 122 121 119 118 118 117 117 117 117 116 116 116 115 115 115 115 115 115 116 116 117 118 118 119 119 119 119 119 118 117 117 116 115 115 115 115 114 114 114 114
116 116 116 115 115 115 115 115 116 116 116 116 117 117 117 118 118 118 119 119 119 120 120 120 120 120 120 120 120 120 120 120 120 120 120 121 121 121 122 123 124 124 124 124 124 124 123 122 120 119 117 117 117 117 117 116 115 115 114 115 115 115 115 115 115 115 116 117 118 118 119 119 119 119 119 119 118 117 117 116 116 117 117 117 117 117
116 116 116 115 115 115 115 116 116 116 116 116 117 117 117 118 118 118 119 119 119 119 120 120 120 120 120 120 120 120 120 120 120 120 120 120 120 120 121 122 122 123 124 124 124 124 123 122 121 119 117 116 115 116 116 116 115 114 113 113 113 114 114 114 114 115 115 116 117 118 118 119 119 119 119 119 119 118 117 117 117 118 118 119 119 119
Wind_Direction
271 270 270 270 270 270 269 269 270 270 270 269 269 269 269 268 268 268 267 267 267 267 267 267 267 267 267 267 267 267 267 267 267 267 267 267 267 267 267 267 267 267 267 267 267 268 268 269 269 270 270 271 271 272 272 273 274 275 275 276 277 278 279 280 281 282 284 285 287 288 288 287 286 284 282 280 278 276 274 272 267 256 240 226 220 218
272 271 271 270 270 270 270 270 270 270 270 270 270 269 269 269 269 268 268 268 268 268 267 267 267 267 267 267 267 267 267 267 267 267 267 267 267 267 267 268 268 268 268 268 268 269 269 270 270 271 271 272 272 273 273 274 275 275 276 277 278 278 279 280 281 283 284 286 287 288 289 288 287 285 283 281 279 277 275 272 265 252 235 223 217 216
273 272 272 271 271 271 270 270 270 270 270 270 270 270 270 270 269 269 269 268 268 268 268 268 267 267 267 267 267 267 267 267 267 267 267 267 267 267 268 268 268 268 269 269 269 269 270 270 271 271 272 272 273 273 274 275 275 276 276 277 278 279 279 280 281 283 284 286 288 289 289 289 287 285 283 281 279 277 275 271 262 247 231 220 216 215
274 273 273 272 272 271 271 271 271 270 270 270 270 270 270 270 270 269 269 269 269 268 268 268 268 268 267 267 267 267 267 267 267 267 267 267 267 267 268 268 268 269 269 269 270 270 270 271 271 272 272 273 273 274 274 275 276 276 277 277 278 279 279 280 281 283 284 286 288 289 289 288 287 285 283 281 279 277 274 268 257 243 229 219 215 214
274 274 273 273 273 272 272 271 271 271 271 271 271 271 271 270 270 270 270 269 269 269 268 268 268 268 268 268 267 267 267 267 267 267 267 267 267 267 268 268 268 269 269 269 270 270 271 271 272 272 273 273 274 274 275 275 276 276 277 277 278 279 279 280 281 282 284 285 287 288 289 288 286 284 282 280 278 276 272 265 253 240 228 218 214 213
274 274 274 274 273 273 272 272 272 271 271 271 271 271 271 271 271 271 270 270 270 269 269 269 268 268 268 268 268 268 268 268 268 268 267 267 268 268 268 268 269 269 269 270 270 271 271 271 272 272 273 273 274 274 275 275 276 276 277 277 278 279 279 280 281 282 283 285 286 288 288 287 285 283 281 279 277 274 269 261 250 238 226 217 212 211
274 274 274 274 274 273 273 273 272 272 272 271 271 271 271 271 271 271 271 271 270 270 270 269 269 269 269 268 268 268 268 268 268 268 268 268 268 268 268 269 269 269 270 270 271 271 271 272 272 272 273 273 274 274 275 275 276 276 277 277 278 278 279 280 281 282 283 284 286 287 287 286 284 282 279 277 275 272 266 257 247 235 223 214 210 210
273 274 274 274 273 273 273 273 272 272 272 272 272 271 271 271 271 271 271 271 271 271 271 270 270 270 269 269 269 269 269 269 269 269 269 269 269 269 269 269 270 270 270 271 271 271 271 272 272 272 273 273 274 274 274 275 275 276 277 277 278 278 279 280 280 281 283 284 285 286 286 284 282 280 277 275 273 269 263 253 242 231 220 212 208 208
272 272 273 273 273 273 273 273 272 272 272 272 272 272 272 272 271 271 271 271 271 271 271 271 271 270 270 270 269 269 269 269 269 269 269 269 269 270 270 270 270 270 271 271 271 271 272 272 272 272 273 273 273 274 274 275 275 276 276 277 277 278 279 279 280 281 282 283 284 284 284 283 280 278 275 273 270 266 259 249 237 226 217 210 207 207
271 271 272 272 272 272 273 273 273 272 272 272 272 272 272 272 272 272 272 271 271 271 271 271 271 271 271 270 270 270 270 270 270 270 270 270 270 270 270 270 270 270 271 271 271 271 272 272 272 272 273 273 273 274 274 274 275 275 276 276 277 278 278 279 280 281 282 282 283 283 283 281 278 275 273 270 267 263 255 244 232 222 215 209 207 207
270 270 270 271 271 271 272 272 272 272 272 272 272 271 271 271 272 272 272 272 272 271 271 271 271 271 271 271 271 270 270 270 270 270 270 270 270 270 270 270 270 270 271 271 271 271 271 272 272 272 272 273 273 273 274 274 274 275 276 276 277 277 278 279 279 280 281 282 282 282 281 279 276 273 270 267 264 259 251 239 228 220 214 209 206 207
269 269 269 270 270 270 271 271 271 272 272 272 272 272 271 271 271 272 272 272 272 272 272 271 271 271 271 271 271 271 270 270 270 270 270 270 270 271 271 271 271 271 271 271 271 271 271 272 272 272 272 273 273 273 274 274 274 275 275 276 277 277 278 278 279 280 281 281 281 281 280 278 274 271 267 264 261 255 247 236 226 218 213 209 207 207
268 269 269 269 269 269 270 270 271 271 271 271 271 272 272 271 271 272 272 272 272 272 272 272 272 271 271 271 271 271 270 270 270 270 270 270 271 271 271 271 271 271 271 271 271 271 271 271 272 272 272 273 273 273 274 274 274 275 275 276 276 277 278 278 279 280 280 281 281 280 278 276 272 268 265 261 258 252 243 233 224 218 213 209 207 208
269 268 268 269 269 269 269 269 270 270 270 271 271 271 271 271 272 272 272 272 272 272 272 273 273 272 272 271 271 271 271 271 270 270 270 270 270 270 271 271 271 271 271 271 271 271 271 272 272 272 272 272 273 273 274 274 274 275 275 276 276 277 277 278 279 279 280 280 279 279 277 274 270 266 262 259 255 249 241 231 223 217 213 209 207 208
269 269 269 269 268 268 268 269 269 269 269 270 270 270 271 271 271 271 272 272 272 272 272 273 273 273 273 272 272 271 271 271 271 271 271 270 270 270 270 271 271 271 271 271 271 271 272 272 272 272 272 273 273 273 274 274 274 275 275 276 276 277 277 278 278 279 279 279 278 277 275 273 269 264 260 256 252 247 239 230 223 217 213 210 208 208
270 270 269 269 269 269 268 268 268 269 269 269 269 270 270 270 271 271 271 271 272 272 272 273 273 273 273 273 273 272 272 272 272 271 271 271 271 270 270 270 271 271 271 271 271 272 272 272 272 272 273 273 273 273 274 274 275 275 275 276 276 277 277 277 278 278 278 278 277 276 274 271 267 262 258 254 250 245 237 229 223 217 214 211 209 209
271 271 270 270 270 269 269 269 268 268 268 269 269 269 269 270 270 270 271 271 271 272 272 272 273 273 273 273 273 273 273 273 272 272 272 272 272 271 271 271 271 271 271 271 271 271 272 272 272 272 273 273 273 273 274 274 274 275 275 275 276 276 276 277 277 277 277 277 276 274 272 269 266 261 256 252 248 243 237 229 223 218 215 212 210 210
273 272 272 271 271 270 270 270 269 269 269 269 269 269 269 269 270 270 270 271 271 271 271 272 272 273 273 273 273 273 273 273 273 273 273 273 273 272 272 272 271 271 271 271 271 271 272 272 272 272 273 273 273 273 274 274 274 275 275 275 275 276 276 276 276 276 276 275 274 273 271 268 264 259 254 250 246 241 236 229 223 218 216 213 211 211
274 273 273 272 272 272 271 271 270 270 270 269 269 269 269 269 270 270 270 270 270 271 271 271 272 272 272 273 273 273 273 273 273 273 273 273 273 273 273 273 272 272 272 272 272 272 272 272 272 272 272 273 273 273 273 274 274 274 274 275 275 275 275 275 275 275 275 274 273 271 269 266 263 258 253 249 245 240 235 229 224 219 216 214 213 212
275 275 274 274 273 273 273 272 271 271 271 270 270 270 270 270 270 270 270 270 270 270 270 271 271 271 272 272 273 273 273 273 273 273 273 273 273 274 273 273 273 273 273 273 272 272 272 272 272 272 272 272 273 273 273 273 273 274 274 274 274 274 274 274 274 274 273 272 271 269 267 264 261 257 252 248 243 239 235 230 224 220 217 215 214 213
276 276 275 275 275 274 274 273 273 272 272 272 271 271 271 271 271 271 271 271 271 271 271 271 271 271 271 272 272 273 273 273 273 273 273 273 273 273 273 273 274 273 273 273 273 273 273 273 272 272 272 272 273 273 273 273 273 273 273 273 273 273 273 273 273 272 272 271 269 267 265 262 260 256 252 247 243 239 235 230 225 221 218 216 215 214
276 276 276 276 276 275 275 275 274 274 274 273 273 272 272 272 272 272 272 271 271 271 271 271 271 271 271 272 272 272 273 273 273 273 273 273 273 273 273 274 274 274 274 273 273 273 273 273 273 273 273 272 272 272 272 272 272 272 272 272 272 272 272 272 272 271 270 269 267 265 263 261 258 255 251 247 242 238 234 230 226 222 219 217 216 215
276 276 276 276 276 276 276 276 276 275 275 275 274 274 273 273 273 273 273 272 272 272 272 272 272 272 272 272 272 272 272 272 273 273 273 273 273 273 274 274 274 274 274 273 273 273 273 273 273 273 273 273 272 272 272 272 272 272 272 272 272 271 271 271 270 270 269 267 265 263 261 259 256 254 251 247 243 238 234 231 227 223 220 219 217 216
276 276 276 276 276 276 276 276 276 276 276 276 275 275 275 274 274 274 274 274 273 273 273 273 273 273 273 272 272 272 272 272 272 273 273 273 273 273 273 274 274 274 274 273 273 273 273 273 273 273 273 272 272 272 272 272 272 271 271 271 271 271 270 270 269 268 267 266 264 262 259 257 255 253 250 247 243 239 235 231 228 224 222 220 218 217
275 276 276 276 276 276 276 277 277 277 277 277 277 276 276 276 275 275 275 275 274 274 274 274 274 274 274 273 273 273 273 273 273 273 273 273 273 273 273 273 273 273 273 273 273 273 273 273 273 273 272 272 272 272 272 271 271 271 271 271 270 270 269 269 268 267 266 264 262 260 257 255 253 251 250 247 244 240 236 232 229 226 223 221 219 219
275 276 276 276 276 276 277 277 277 277 277 277 277 277 277 277 277 276 276 276 275 275 275 275 275 274 274 274 274 274 274 273 273 273 273 273 273 273 273 273 273 273 273 273 273 273 273 273 273 273 272 272 272 272 271 271 271 271 270 270 270 269 269 268 267 266 265 263 261 258 256 253 251 250 249 247 245 241 237 233 229 227 224 222 221 220
276 276 276 276 276 277 277 277 277 277 277 277 277 277 277 277 277 277 277 277 276 276 276 276 275 275 275 275 275 274 274 274 274 274 273 273 273 273 273 273 273 273 273 273 273 273 273 273 273 272 272 272 272 271 271 271 270 270 270 269 269 269 268 267 266 265 264 262 260 257 254 252 250 248 248 247 245 242 238 234 231 228 225 223 222 221
276 276 277 277 277 277 277 277 277 278 278 278 278 278 278 278 278 278 277 277 277 277 277 276 276 276 276 275 275 275 275 275 274 274 274 274 273 273 273 273 273 273 272 272 272 272 272 272 272 272 272 272 272 271 271 271 270 270 269 269 268 268 267 267 266 265 263 261 259 256 254 251 249 247 246 246 245 243 240 236 232 229 226 224 223 222
277 277 277 277 277 277 278 278 278 278 278 278 278 278 278 278 278 278 277 277 277 277 277 277 276 276 276 276 276 275 275 275 275 274 274 274 274 273 273 273 273 272 272 272 272 272 272 272 272 272 272 272 271 271 271 271 270 270 269 268 268 267 267 266 265 264 263 261 259 256 253 250 248 246 245 245 245 244 242 238 234 230 227 226 224 223
277 277 277 277 277 278 278 278 278 278 278 278 278 278 278 278 278 278 277 277 277 277 277 277 277 277 276 276 276 276 276 275 275 275 274 274 274 274 273 273 273 272 272 272 272 272 271 271 271 271 271 271 271 271 271 271 270 270 269 268 268 267 266 265 265 264 262 261 259 256 254 250 247 245 244 243 243 243 242 240 236 232 229 227 225 224
278 278 278 278 278 278 278 278 278 278 278 278 278 278 278 278 278 278 278 278 277 277 277 277 277 277 277 277 276 276 276 275 275 275 275 275 274 274 273 273 273 272 272 272 271 271 271 271 271 271 270 270 270 270 270 270 270 270 269 268 268 267 266 265 264 263 262 260 259 257 254 251 248 245 243 242 242 242 242 241 238 234 231 228 226 225
278 278 278 278 278 278 278 278 278 278 278 278 278 278 278 278 278 278 278 277 277 277 277 277 277 277 277 276 276 276 276 276 275 275 275 275 274 274 273 273 273 272 272 271 271 270 270 270 270 270 270 270 270 270 270 270 270 270 269 269 268 267 266 265 264 263 261 260 259 257 255 252 249 245 242 241 241 241 241 241 239 236 233 230 228 226
278 278 278 278 278 278 278 278 278 278 278 278 278 278 278 278 278 277 277 277 277 277 277 277 277 277 276 276 276 276 276 275 275 275 275 274 274 274 273 273 273 272 272 271 271 270 270 269 269 269 269 269 269 269 269 269 269 269 269 268 268 267 266 265 264 263 261 260 258 257 255 252 249 246 243 241 240 240 240 240 240 238 235 232 229 227
278 279 279 279 279 279 278 278 278 278 278 278 278 278 278 278 278 277 277 277 277 277 276 276 276 276 276 276 276 276 275 275 275 275 274 274 274 273 273 273 272 272 272 271 271 270 270 269 269 268 268 268 268 268 268 268 268 268 268 268 267 267 266 265 264 263 261 260 258 257 255 253 250 247 244 241 239 238 239 239 239 238 236 234 231 229
278 278 278 279 279 279 279 278 278 278 278 278 278 278 278 278 278 277 277 277 277 276 276 276 276 276 275 275 275 275 275 274 274 274 274 274 273 273 273 272 272 272 271 271 271 270 270 269 268 268 267 267 267 267 267 267 267 267 267 267 266 266 266 265 264 263 262 260 258 257 255 253 251 248 245 242 240 238 237 238 238 238 237 235 232 230
278 278 278 278 278 278 278 278 278 278 278 278 278 278 278 278 278 277 277 277 277 276 276 276 275 275 275 275 274 274 274 274 274 274 273 273 273 272 272 272 271 271 271 271 270 270 270 269 268 268 267 267 266 266 266 266 266 266 266 265 265 265 265 264 264 263 262 260 259 257 255 253 251 249 246 243 240 238 237 236 237 237 237 236 234 231
278 278 278 278 278 278 278 278 278 278 278 278 278 278 278 278 277 277 277 277 276 276 276 276 275 275 275 274 274 274 273 273 273 273 272 272 272 272 271 271 271 271 270 270 270 270 269 269 268 268 267 267 266 266 265 265 265 265 264 264 264 264 264 264 263 262 262 260 259 257 255 253 251 249 247 244 241 239 237 236 236 236 236 235 234 233
278 278 278 278 278 278 278 278 278 278 278 278 278 278 278 277 277 277 277 277 276 276 276 276 275 275 275 274 274 274 273 273 272 272 272 272 271 271 271 270 270 270 270 269 269 269 269 269 268 268 267 267 266 265 265 265 264 264 264 263 263 263 263 262 262 262 261 260 259 257 256 254 252 250 247 245 242 239 237 235 235 234 235 235 234 233
278 278 278 278 278 278 278 278 278 278 278 278 277 277 277 277 277 277 277 276 276 276 276 275 275 275 275 274 274 274 273 273 272 272 271 271 271 270 270 270 270 269 269 269 269 268 268 268 268 267 267 266 266 265 265 264 264 264 263 263 263 262 262 261 261 260 260 259 258 257 256 254 252 250 248 246 243 240 238 236 234 234 233 234 234 233
277 277 277 277 277 277 277 277 277 277 277 277 277 277 277 277 277 276 276 276 276 276 275 275 275 275 274 274 274 274 273 273 272 272 271 271 271 270 270 269 269 269 268 268 268 268 267 267 267 266 266 266 265 265 264 264 264 263 263 263 262 262 261 260 260 259 259 258 258 257 256 254 253 251 249 246 244 241 239 236 234 233 233 232 232 233
277 277 277 277 277 277 277 277 277 277 277 277 277 276 276 276 276 276 276 276 276 275 275 275 275 275 274 274 274 273 273 273 272 272 271 271 271 270 270 269 269 268 268 268 267 267 267 266 266 266 265 265 264 264 264 263 263 262 262 262 261 261 260 260 259 258 258 257 256 256 255 254 253 251 249 247 245 242 239 237 235 233 232 232 232 232
277 277 277 277 277 277 277 277 277 276 276 276 276 276 276 276 276 275 275 275 275 275 275 275 274 274 274 274 273 273 273 272 272 272 271 271 270 270 270 269 269 268 268 267 267 266 266 266 265 265 264 264 263 263 262 262 262 261 261 261 260 260 259 259 258 257 257 256 255 255 254 253 252 251 250 248 246 243 240 238 235 233 232 231 231 231
278 277 277 277 277 277 277 277 276 276 276 276 276 276 275 275 275 275 275 274 274 274 274 274 274 273 273 273 272 272 272 272 271 271 271 270 270 270 269 269 269 268 268 267 267 266 266 265 265 264 264 263 262 262 261 261 260 260 259 259 259 258 258 257 257 256 256 255 255 254 253 252 251 250 249 248 246 244 242 239 236 234 232 231 230 230
278 278 277 277 277 277 277 277 276 276 276 276 275 275 275 275 274 274 274 274 273 273 273 273 273 272 272 272 271 271 271 271 270 270 270 270 270 269 269 269 268 268 267 267 266 266 265 265 264 264 263 262 262 261 261 260 259 259 258 258 257 257 256 256 255 255 255 254 254 253 252 251 250 249 248 247 246 245 243 240 237 235 232 231 230 229
278 278 278 277 277 277 277 276 276 276 276 275 275 275 274 274 274 274 273 273 273 272 272 272 271 271 271 270 270 270 270 269 269 269 269 269 269 269 269 268 268 268 267 267 266 266 265 265 264 264 263 262 262 261 260 259 259 258 257 257 256 256 255 255 254 254 253 253 253 252 251 250 249 248 247 246 245 244 243 241 239 236 233 231 230 229
278 278 278 277 277 277 276 276 276 275 275 275 274 274 274 273 273 273 273 272 272 271 271 271 270 270 270 269 269 269 269 268 268 268 268 268 268 268 268 268 268 268 267 267 266 266 265 265 264 264 263 262 262 261 260 259 259 258 257 256 255 255 254 254 253 253 252 252 252 251 251 250 249 248 247 246 244 243 242 241 239 237 234 232 230 229
278 278 277 277 277 276 276 275 275 275 274 274 274 273 273 273 273 272 272 272 271 271 271 270 270 269 269 269 268 268 268 268 268 267 267 268 268 268 268 268 268 268 267 267 267 266 266 265 265 264 263 263 262 261 261 260 259 258 257 256 256 255 254 254 253 252 252 251 251 250 250 249 248 247 246 245 244 243 241 240 239 237 235 233 231 229
278 277 277 277 276 276 275 275 275 274 274 273 273 273 273 272 272 272 272 271 271 270 270 270 269 269 269 269 268 268 268 267 267 267 267 267 267 267 267 268 268 268 268 267 267 267 266 266 265 265 264 263 263 262 261 261 260 259 258 257 256 255 255 254 253 253 252 251 251 250 250 249 248 247 246 245 244 242 241 240 239 237 236 234 231 230
277 277 277 276 276 275 275 274 274 274 273 273 273 272 272 272 272 271 271 271 271 270 270 270 269 269 269 269 268 268 268 268 267 267 267 267 267 267 267 267 267 267 268 268 268 267 267 267 266 266 265 264 264 263 262 262 261 260 259 258 258 257 256 255 254 253 253 252 251 251 250 249 248 248 247 246 244 243 241 240 239 238 236 234 232 230
277 277 276 276 276 275 275 274 274 274 273 273 272 272 272 272 271 271 271 271 270 270 270 270 270 269 269 269 269 269 268 268 268 268 268 267 267 267 267 267 267 267 267 267 268 268 267 267 267 267 266 265 265 264 263 263 262 261 260 259 259 258 257 256 255 254 254 253 252 251 251 250 249 249 248 246 245 244 242 240 239 238 237 235 233 231
277 277 276 276 276 275 275 274 274 273 273 273 272 272 272 272 271 271 271 271 270 270 270 270 270 270 269 269 269 269 269 269 268 268 268 268 268 268 267 267 267 267 267 267 267 267 267 267 267 267 267 266 266 265 264 264 263 262 261 260 260 259 258 257 256 255 254 254 253 252 252 251 250 250 249 248 247 245 244 242 240 239 237 236 235 233
Height
10631 10632 10632 10633 10633 10632 10632 10633 10633 10632 10632 10632 10632 10632 10632 10632 10633 10633 10633 10634 10634 10634 10634 10634 10635 10635 10635 10635 10635 10635 10635 10635 10635 10636 10636 10636 10635 10636 10636 10636 10636 10637 10637 10637 10637 10637 10637 10637 10637 10637 10637 10637 10637 10637 10638 10638 10638 10638 10638 10638 10638 10638 10639 10639 10639 10639 10638 10637 10635 10634 10632 10630 10629 10627 10628 10627 10627 10627 10627 10627 10627 10627 10627 10630 10632 10637
10625 10625 10625 10626 10627 10627 10626 10627 10627 10627 10626 10625 10625 10626 10626 10627 10627 10627 10627 10627 10628 10628 10629 10629 10629 10629 10629 10629 10629 10630 10630 10630 10630 10630 10630 10630 10630 10630 10630 10630 10630 10630 10630 10630 10631 10631 10630 10630 10630 10630 10631 10631 10631 10631 10632 10632 10632 10632 10632 10632 10632 10632 10632 10632 10632 10632 10632 10632 10630 10629 10627 10625 10623 10621 10621 10620 10621 10621 10621 10620 10620 10621 10622 10625 10628 10631
10618 10619 10619 10620 10620 10620 10620 10621 10622 10622 10621 10620 10620 10620 10620 10620 10620 10620 10621 10622 10622 10622 10622 10622 10623 10623 10624 10624 10624 10624 10624 10624 10625 10625 10625 10625 10625 10624 10624 10624 10624 10624 10625 10625 10625 10625 10625 10625 10625 10625 10625 10625 10625 10625 10625 10625 10625 10625 10625 10625 10626 10626 10626 10627 10627 10627 10627 10626 10625 10624 10622 10620 10617 10615 10615 10615 10615 10615 10615 10615 10615 10616 10618 10620 10624 10627
10611 10612 10612 10613 10614 10614 10614 10615 10615 10615 10615 10615 10614 10614 10614 10614 10614 10614 10615 10615 10615 10616 10616 10617 10617 10617 10617 10617 10618 10618 10619 10619 10619 10619 10619 10619 10619 10619 10619 10619 10619 10619 10619 10619 10619 10619 10619 10619 10619 10619 10619 10619 10619 10619 10619 10619 10619 10619 10619 10619 10620 10620 10620 10620 10621 10621 10621 10620 10620 10619 10617 10615 10613 10611 10609 10609 10609 10610 10610 10611 10611 10612 10614 10617 10619 10623
10604 10605 10605 10606 10607 10607 10608 10609 10609 10609 10609 10609 10609 10608 10608 10608 10608 10608 10609 10609 10609 10610 10610 10610 10610 10611 10611 10611 10612 10612 10612 10613 10613 10613 10613 10613 10613 10613 10613 10613 10613 10613 10613 10613 10613 10613 10613 10613 10613 10612 10612 10612 10612 10612 10612 10612 10612 10612 10613 10613 10614 10614 10614 10614 10615 10615 10615 10615 10615 10614 10613 10611 10609 10606 10605 10604 10604 10605 10605 10607 10607 10609 10610 10613 10616 10620
10597 10598 10599 10599 10600 10600 10601 10602 10603 10603 10603 10602 10602 10602 10602 10602 10602 10602 10602 10602 10603 10603 10604 10604 10604 10605 10605 10605 10605 10606 10606 10607 10607 10607 10607 10607 10607 10607 10607 10607 10607 10607 10607 10607 10607 10607 10607 10607 10607 10607 10606 10606 10606 10605 10605 10606 10606 10606 10606 10607 10607 10607 10608 10609 10609 10610 10610 10610 10610 10610 10609 10607 10604 10602 10600 10600 10600 10600 10601 10602 10604 10605 10606 10609 10613 10618
10591 10592 10592 10592 10593 10593 10594 10595 10595 10596 10596 10595 10595 10595 10595 10595 10595 10595 10595 10595 10596 10596 10597 10597 10598 10599 10599 10599 10599 10600 10600 10600 10600 10600 10600 10600 10601 10601 10601 10601 10601 10601 10600 10600 10600 10600 10600 10600 10600 10600 10600 10600 10600 10599 10599 10599 10600 10600 10600 10600 10600 10601 10602 10602 10603 10604 10604 10605 10605 10605 10604 10603 10600 10598 10596 10595 10595 10597 10597 10597 10599 10600 10602 10604 10609 10614
10585 10585 10585 10586 10586 10586 10587 10587 10589 10589 10590 10589 10589 10589 10589 10589 10589 10589 10589 10589 10589 10589 10590 10590 10590 10591 10592 10593 10593 10594 10594 10594 10594 10594 10594 10594 10594 10594 10594 10595 10595 10595 10595 10594 10594 10594 10594 10594 10594 10594 10594 10594 10594 10594 10594 10594 10594 10593 10594 10594 10594 10595 10595 10596 10597 10598 10599 10599 10600 10600 10600 10599 10597 10594 10592 10591 10592 10592 10593 10594 10594 10595 10597 10600 10605 10609
10580 10580 10580 10580 10580 10580 10580 10580 10581 10582 10583 10583 10583 10582 10582 10582 10582 10582 10582 10582 10582 10583 10583 10583 10583 10584 10585 10586 10587 10587 10587 10587 10587 10587 10587 10587 10587 10587 10587 10588 10588 10588 10588 10588 10588 10588 10588 10588 10587 10587 10587 10587 10587 10587 10587 10587 10587 10587 10587 10587 10587 10588 10589 10590 10590 10592 10593 10594 10594 10595 10595 10594 10592 10590 10589 10588 10588 10589 10589 10590 10590 10592 10594 10596 10600 10605
10575 10575 10574 10574 10574 10574 10574 10574 10574 10575 10576 10577 10576 10576 10576 10575 10575 10574 10574 10574 10575 10576 10577 10576 10576 10576 10577 10578 10579 10580 10580 10580 10580 10580 10580 10580 10580 10580 10580 10580 10581 10581 10581 10581 10581 10581 10581 10581 10581 10580 10580 10580 10580 10580 10580 10580 10580 10580 10580 10580 10580 10581 10582 10583 10584 10585 10587 10588 10589 10589 10590 10589 10588 10587 10585 10584 10584 10585 10585 10587 10587 10589 10590 10592 10596 10600
10570 10570 10569 10569 10568 10569 10569 10568 10567 10568 10569 10569 10569 10569 10570 10569 10569 10568 10567 10567 10567 10569 10569 10569 10569 10569 10569 10570 10571 10572 10574 10574 10574 10574 10573 10573 10572 10572 10573 10573 10574 10574 10574 10574 10574 10574 10574 10574 10574 10574 10574 10574 10574 10574 10574 10574 10574 10574 10574 10574 10574 10574 10575 10576 10577 10579 10580 10582 10582 10584 10584 10584 10584 10582 10581 10580 10580 10580 10582 10583 10584 10585 10587 10589 10592 10595
10564 10564 10564 10563 10562 10562 10562 10562 10562 10562 10562 10562 10562 10562 10562 10562 10563 10563 10561 10560 10560 10560 10560 10561 10562 10562 10562 10562 10564 10564 10565 10566 10566 10566 10565 10565 10565 10565 10565 10565 10565 10566 10567 10567 10567 10567 10567 10567 10567 10567 10566 10566 10566 10566 10566 10567 10567 10567 10567 10567 10567 10567 10568 10569 10570 10572 10574 10575 10576 10577 10579 10579 10579 10578 10576 10575 10575 10577 10578 10579 10580 10581 10582 10585 10588 10591
10557 10557 10557 10557 10557 10557 10557 10557 10556 10556 10556 10556 10555 10555 10555 10555 10557 10557 10555 10554 10554 10553 10553 10552 10552 10553 10554 10555 10556 10557 10558 10559 10559 10559 10559 10557 10557 10557 10558 10558 10557 10558 10559 10559 10559 10560 10560 10560 10560 10559 10559 10559 10559 10559 10559 10559 10559 10560 10560 10560 10560 10560 10560 10562 10564 10565 10567 10569 10570 10570 10572 10573 10573 10572 10572 10571 10571 10572 10574 10575 10575 10576 10578 10580 10583 10586
10550 10550 10550 10550 10550 10550 10550 10550 10550 10550 10549 10550 10549 10549 10549 10549 10549 10550 10549 10548 10547 10547 10547 10545 10544 10544 10544 10546 10548 10549 10550 10550 10551 10550 10550 10550 10549 10550 10550 10550 10550 10550 10550 10551 10551 10551 10552 10552 10552 10552 10552 10552 10551 10551 10551 10551 10552 10552 10552 10552 10552 10553 10554 10554 10556 10558 10560 10561 10562 10564 10565 10567 10567 10567 10566 10565 10566 10567 10569 10570 10571 10572 10573 10575 10578 10581
10542 10543 10543 10543 10542 10543 10544 10544 10544 10544 10543 10544 10544 10543 10542 10542 10542 10542 10542 10542 10541 10541 10540 10539 10537 10535 10535 10536 10538 10540 10542 10542 10542 10542 10542 10541 10541 10542 10543 10543 10542 10542 10542 10543 10543 10543 10544 10544 10544 10544 10544 10544 10544 10544 10544 10544 10544 10544 10544 10544 10545 10545 10546 10547 10549 10550 10552 10554 10555 10557 10558 10559 10560 10561 10560 10560 10560 10561 10563 10565 10566 10567 10569 10570 10572 10575
10534 10535 10535 10535 10535 10535 10535 10536 10537 10537 10536 10537 10537 10537 10536 10535 10535 10535 10536 10535 10535 10534 10534 10532 10530 10529 10527 10527 10528 10530 10533 10534 10534 10534 10533 10532 10531 10532 10535 10535 10535 10534 10534 10534 10534 10534 10535 10535 10535 10535 10535 10535 10535 10535 10535 10535 10535 10535 10536 10536 10537 10537 10538 10539 10540 10542 10544 10546 10548 10549 10550 10552 10554 10554 10555 10554 10555 10555 10557 10559 10560 10562 10563 10565 10567 10569
10525 10526 10527 10526 10527 10527 10527 10528 10529 10529 10529 10530 10530 10530 10529 10529 10529 10529 10529 10529 10528 10528 10527 10526 10524 10522 10520 10518 10519 10520 10524 10525 10525 10524 10524 10522 10521 10522 10524 10527 10526 10525 10525 10526 10526 10527 10527 10527 10527 10527 10526 10527 10527 10527 10527 10527 10527 10527 10527 10528 10529 10529 10530 10532 10533 10535 10537 10539 10540 10541 10542 10544 10546 10547 10548 10549 10549 10550 10551 10553 10555 10556 10557 10559 10561 10563
10516 10517 10517 10517 10518 10518 10518 10519 10520 10520 10521 10522 10522 10522 10522 10522 10522 10522 10522 10522 10521 10521 10520 10519 10518 10516 10514 10512 10510 10510 10513 10516 10516 10515 10514 10513 10511 10510 10513 10515 10516 10515 10516 10517 10517 10518 10519 10519 10519 10518 10518 10518 10518 10518 10519 10519 10519 10519 10519 10520 10520 10521 10522 10524 10525 10527 10529 10530 10532 10533 10535 10536 10538 10540 10541 10542 10542 10544 10545 10547 10549 10550 10552 10553 10555 10557
10505 10507 10507 10508 10508 10509 10509 10509 10510 10511 10512 10513 10514 10514 10514 10513 10513 10514 10514 10514 10514 10514 10513 10512 10511 10510 10508 10506 10503 10501 10503 10506 10507 10506 10505 10504 10502 10500 10501 10504 10505 10505 10505 10506 10507 10509 10510 10510 10510 10509 10509 10509 10509 10509 10510 10510 10510 10510 10511 10512 10512 10513 10514 10515 10517 10519 10520 10522 10524 10525 10527 10528 10530 10532 10534 10535 10536 10537 10538 10540 10542 10544 10545 10547 10549 10550
10495 10496 10497 10498 10499 10499 10499 10499 10500 10501 10502 10504 10504 10505 10504 10504 10504 10505 10505 10505 10505 10505 10505 10505 10504 10502 10501 10500 10497 10494 10494 10496 10497 10497 10496 10495 10494 10491 10490 10492 10494 10494 10494 10495 10496 10498 10500 10500 10500 10500 10500 10500 10500 10500 10501 10501 10502 10502 10502 10503 10504 10505 10505 10507 10509 10510 10512 10514 10515 10517 10519 10520 10522 10524 10525 10527 10529 10530 10531 10533 10535 10537 10539 10540 10542 10544
10486 10485 10486 10487 10489 10489 10488 10488 10489 10491 10492 10494 10494 10495 10495 10494 10495 10495 10495 10495 10496 10497 10496 10497 10496 10495 10494 10493 10490 10487 10486 10487 10488 10487 10486 10487 10485 10482 10480 10482 10484 10484 10483 10484 10485 10487 10489 10490 10490 10490 10490 10490 10490 10491 10492 10492 10493 10493 10494 10495 10495 10497 10497 10499 10500 10502 10504 10506 10507 10509 10510 10512 10513 10515 10517 10519 10521 10523 10524 10526 10529 10530 10532 10534 10535 10537
10477 10475 10475 10477 10479 10479 10477 10477 10478 10480 10481 10482 10484 10484 10484 10485 10485 10485 10485 10485 10486 10486 10487 10487 10487 10487 10486 10485 10482 10480 10479 10479 10479 10478 10477 10478 10476 10472 10471 10472 10474 10474 10473 10473 10474 10476 10478 10479 10479 10479 10479 10480 10480 10481 10482 10483 10484 10484 10485 10486 10487 10488 10489 10490 10492 10494 10495 10498 10499 10501 10502 10504 10505 10507 10509 10511 10513 10515 10517 10519 10521 10523 10525 10527 10529 10530
10469 10467 10466 10467 10468 10468 10467 10467 10468 10469 10469 10471 10472 10472 10473 10474 10475 10475 10475 10475 10475 10476 10476 10477 10477 10477 10477 10475 10474 10472 10470 10470 10470 10470 10470 10469 10467 10464 10462 10464 10464 10464 10464 10464 10465 10467 10468 10468 10468 10469 10469 10469 10470 10470 10472 10473 10474 10475 10476 10477 10478 10479 10480 10482 10484 10485 10487 10489 10491 10492 10494 10495 10497 10498 10500 10502 10505 10507 10509 10511 10513 10515 10518 10520 10522 10524
10460 10459 10458 10458 10458 10458 10458 10457 10457 10457 10458 10459 10460 10461 10462 10464 10464 10464 10464 10464 10465 10465 10465 10466 10467 10466 10465 10464 10463 10462 10461 10460 10461 10462 10462 10460 10458 10456 10455 10455 10455 10454 10453 10454 10455 10457 10458 10458 10457 10458 10459 10459 10459 10460 10462 10463 10464 10465 10466 10468 10469 10470 10472 10474 10475 10477 10479 10481 10483 10484 10485 10487 10489 10490 10491 10493 10495 10499 10501 10503 10505 10508 10510 10512 10515 10516
10452 10450 10450 10449 10449 10449 10449 10448 10447 10447 10447 10448 10449 10449 10450 10452 10452 10453 10453 10454 10454 10454 10455 10456 10456 10455 10453 10453 10453 10452 10450 10450 10452 10452 10452 10450 10450 10449 10447 10447 10446 10445 10444 10444 10445 10447 10448 10447 10447 10447 10448 10449 10449 10450 10452 10453 10454 10455 10457 10458 10460 10461 10463 10464 10466 10468 10470 10472 10475 10476 10477 10479 10480 10481 10482 10484 10487 10490 10492 10495 10497 10500 10502 10505 10507 10509
10442 10441 10440 10440 10440 10439 10439 10439 10438 10438 10437 10437 10438 10439 10439 10440 10441 10441 10441 10441 10442 10443 10444 10445 10444 10444 10442 10443 10442 10441 10439 10439 10440 10442 10441 10441 10441 10440 10439 10437 10437 10437 10435 10435 10436 10437 10437 10437 10437 10437 10438 10438 10439 10440 10442 10443 10444 10446 10447 10449 10450 10452 10454 10455 10457 10459 10461 10464 10466 10468 10469 10470 10472 10473 10474 10475 10477 10480 10484 10487 10489 10492 10494 10497 10499 10501
10432 10432 10431 10430 10430 10430 10429 10429 10429 10428 10427 10427 10427 10428 10429 10430 10430 10430 10429 10429 10430 10432 10434 10433 10432 10432 10432 10432 10432 10430 10429 10429 10429 10429 10429 10431 10431 10430 10429 10428 10429 10429 10427 10427 10427 10428 10428 10427 10427 10427 10428 10428 10429 10430 10432 10433 10434 10436 10437 10439 10440 10442 10444 10445 10447 10449 10452 10454 10457 10459 10461 10462 10464 10465 10465 10467 10469 10471 10474 10477 10480 10483 10485 10489 10491 10493
10422 10421 10421 10420 10420 10419 10419 10419 10418 10418 10417 10417 10417 10417 10418 10419 10420 10419 10417 10417 10419 10421 10422 10420 10420 10420 10421 10421 10420 10420 10419 10419 10417 10417 10418 10420 10421 10419 10417 10419 10420 10419 10418 10418 10419 10419 10419 10419 10418 10417 10418 10418 10419 10420 10421 10422 10424 10426 10427 10429 10430 10432 10434 10436 10438 10440 10442 10445 10447 10450 10452 10454 10455 10457 10457 10459 10460 10462 10465 10469 10472 10474 10477 10480 10482 10485
10411 10411 10410 10410 10409 10409 10409 10408 10407 10407 10407 10406 10406 10406 10407 10408 10409 10408 10406 10406 10409 10410 10410 10408 10408 10409 10410 10410 10410 10409 10409 10407 10405 10405 10407 10410 10410 10407 10407 10409 10410 10409 10407 10409 10410 10410 10410 10409 10409 10409 10409 10409 10409 10410 10410 10412 10414 10415 10417 10419 10420 10422 10424 10426 10428 10430 10432 10435 10437 10440 10443 10445 10447 10448 10449 10450 10451 10453 10455 10459 10462 10465 10468 10471 10474 10476
10401 10400 10400 10399 10399 10398 10398 10397 10397 10396 10396 10395 10395 10395 10395 10397 10397 10397 10396 10396 10398 10399 10398 10397 10397 10398 10399 10399 10399 10399 10397 10394 10393 10394 10397 10399 10397 10395 10396 10399 10399 10397 10397 10399 10400 10400 10400 10399 10400 10400 10400 10400 10400 10400 10400 10402 10403 10404 10406 10408 10410 10412 10414 10416 10418 10420 10422 10425 10427 10430 10434 10435 10438 10439 10440 10442 10443 10444 10446 10449 10452 10456 10459 10462 10464 10467
10390 10390 10389 10389 10387 10387 10387 10387 10386 10385 10385 10385 10384 10384 10384 10385 10385 10385 10385 10385 10387 10387 10386 10386 10386 10387 10387 10389 10389 10388 10385 10382 10381 10383 10385 10387 10385 10384 10385 10389 10388 10385 10386 10389 10390 10390 10390 10390 10391 10392 10391 10392 10392 10392 10392 10392 10392 10394 10395 10397 10399 10401 10403 10405 10407 10409 10412 10415 10417 10420 10423 10425 10428 10430 10432 10433 10434 10435 10437 10439 10442 10446 10450 10452 10455 10457
10379 10379 10378 10377 10377 10376 10376 10375 10375 10374 10374 10374 10373 10373 10373 10374 10374 10374 10374 10374 10375 10375 10375 10375 10375 10375 10376 10377 10378 10377 10374 10372 10371 10372 10374 10375 10374 10372 10374 10377 10377 10374 10375 10377 10379 10380 10380 10382 10382 10382 10382 10382 10382 10382 10383 10383 10383 10384 10385 10386 10388 10390 10392 10394 10396 10399 10401 10404 10407 10409 10412 10415 10418 10420 10422 10424 10425 10427 10428 10430 10432 10436 10440 10443 10445 10447
10369 10368 10367 10365 10365 10364 10364 10364 10363 10363 10362 10362 10362 10362 10362 10362 10362 10363 10363 10363 10363 10363 10364 10364 10364 10364 10365 10365 10366 10365 10364 10362 10360 10360 10362 10363 10362 10361 10362 10364 10365 10364 10363 10365 10367 10369 10370 10372 10374 10374 10374 10374 10373 10373 10374 10374 10374 10374 10375 10376 10377 10378 10380 10382 10385 10387 10390 10393 10396 10399 10401 10404 10407 10410 10413 10415 10417 10417 10419 10420 10422 10425 10429 10433 10435 10438
10358 10357 10356 10355 10354 10353 10352 10352 10351 10351 10350 10350 10350 10350 10350 10350 10351 10351 10350 10350 10351 10351 10352 10352 10353 10353 10354 10354 10354 10354 10353 10351 10349 10349 10350 10351 10350 10349 10350 10352 10353 10352 10352 10354 10355 10356 10358 10360 10363 10365 10365 10365 10364 10364 10364 10364 10364 10364 10365 10366 10367 10367 10368 10370 10373 10375 10378 10382 10385 10387 10389 10392 10395 10399 10402 10405 10407 10409 10410 10411 10413 10415 10419 10422 10425 10428
10348 10347 10345 10344 10343 10342 10340 10340 10340 10339 10339 10339 10338 10338 10339 10339 10339 10339 10338 10338 10339 10339 10339 10340 10341 10342 10342 10343 10343 10343 10342 10340 10338 10338 10339 10339 10339 10338 10339 10340 10341 10340 10340 10342 10343 10344 10346 10349 10350 10353 10355 10355 10355 10355 10354 10354 10354 10355 10356 10357 10357 10357 10357 10359 10361 10363 10365 10369 10372 10375 10377 10380 10384 10387 10391 10394 10397 10399 10400 10402 10403 10405 10408 10411 10415 10418
10338 10336 10335 10333 10332 10331 10330 10329 10328 10328 10327 10327 10326 10326 10327 10327 10326 10326 10325 10325 10326 10326 10327 10327 10329 10330 10330 10332 10332 10332 10330 10329 10327 10327 10327 10327 10325 10326 10328 10329 10328 10329 10330 10330 10330 10331 10334 10336 10339 10340 10343 10345 10345 10344 10344 10344 10345 10346 10347 10347 10347 10347 10348 10349 10350 10351 10353 10356 10359 10362 10365 10369 10372 10375 10379 10382 10385 10388 10390 10392 10394 10395 10397 10400 10404 10407
10327 10325 10324 10322 10322 10320 10319 10318 10317 10316 10316 10315 10314 10314 10314 10314 10314 10314 10313 10313 10313 10314 10314 10315 10315 10317 10318 10319 10320 10320 10319 10317 10317 10316 10315 10314 10313 10314 10315 10315 10315 10317 10319 10319 10317 10318 10322 10325 10327 10328 10330 10332 10332 10332 10332 10334 10335 10335 10335 10335 10337 10338 10339 10339 10339 10340 10341 10343 10345 10349 10352 10356 10360 10363 10367 10370 10374 10377 10379 10382 10383 10385 10387 10389 10392 10395
10316 10315 10313 10312 10310 10310 10309 10307 10306 10305 10305 10304 10303 10302 10302 10302 10301 10300 10300 10300 10300 10301 10301 10302 10302 10304 10304 10305 10306 10307 10306 10305 10305 10304 10302 10301 10301 10302 10303 10303 10303 10304 10305 10305 10305 10306 10309 10312 10314 10315 10317 10319 10319 10320 10321 10322 10324 10324 10324 10324 10326 10329 10329 10328 10328 10329 10329 10330 10332 10335 10339 10343 10346 10350 10354 10358 10362 10365 10368 10370 10372 10374 10376 10379 10381 10384
10305 10304 10302 10301 10300 10299 10298 10297 10295 10294 10294 10293 10292 10291 10290 10289 10289 10288 10287 10287 10288 10288 10289 10289 10290 10290 10291 10292 10293 10293 10293 10292 10291 10290 10289 10288 10288 10289 10290 10290 10290 10291 10291 10292 10293 10295 10296 10299 10300 10302 10304 10305 10307 10308 10309 10310 10312 10312 10311 10312 10315 10317 10317 10315 10316 10318 10319 10319 10320 10322 10325 10329 10332 10337 10340 10345 10349 10352 10355 10358 10360 10363 10365 10368 10370 10373
10294 10293 10291 10290 10289 10288 10287 10286 10284 10283 10282 10282 10280 10279 10278 10277 10276 10275 10275 10275 10275 10275 10275 10276 10277 10277 10279 10279 10279 10279 10279 10278 10277 10275 10275 10275 10274 10275 10275 10277 10277 10277 10277 10279 10280 10282 10283 10284 10286 10289 10291 10293 10295 10295 10297 10298 10299 10299 10299 10301 10303 10303 10302 10302 10305 10307 10307 10307 10308 10310 10312 10315 10319 10323 10327 10331 10335 10339 10343 10345 10349 10352 10355 10357 10359 10362
10282 10281 10280 10279 10277 10277 10276 10275 10273 10272 10272 10270 10269 10268 10266 10265 10264 10263 10263 10262 10262 10262 10263 10263 10264 10264 10265 10265 10266 10266 10265 10264 10262 10260 10260 10260 10260 10260 10260 10262 10262 10262 10263 10265 10266 10267 10269 10270 10272 10274 10277 10279 10281 10282 10284 10285 10286 10286 10287 10289 10289 10287 10287 10290 10294 10295 10293 10294 10296 10299 10300 10302 10306 10310 10313 10317 10321 10326 10330 10333 10337 10340 10343 10345 10348 10350
10270 10269 10268 10267 10266 10265 10264 10263 10262 10261 10260 10259 10257 10256 10254 10252 10252 10251 10251 10250 10250 10250 10250 10250 10250 10252 10252 10252 10252 10252 10251 10249 10248 10246 10245 10245 10245 10245 10245 10245 10246 10247 10248 10250 10251 10252 10254 10255 10258 10260 10262 10264 10266 10269 10271 10272 10272 10273 10274 10275 10274 10272 10274 10279 10280 10280 10278 10280 10284 10286 10287 10290 10293 10296 10299 10303 10307 10312 10316 10320 10325 10328 10330 10332 10335 10338
10257 10257 10255 10255 10254 10254 10252 10251 10250 10249 10247 10246 10245 10244 10242 10240 10239 10239 10238 10238 10237 10237 10237 10237 10237 10238 10238 10239 10238 10237 10237 10235 10234 10232 10231 10230 10230 10230 10230 10230 10230 10231 10232 10234 10236 10237 10237 10239 10243 10245 10246 10247 10251 10255 10257 10257 10258 10259 10261 10260 10259 10259 10262 10264 10264 10263 10265 10269 10270 10272 10274 10277 10280 10282 10285 10290 10294 10299 10302 10307 10311 10314 10316 10319 10322 10325
10244 10244 10244 10243 10242 10241 10240 10238 10237 10235 10234 10233 10232 10230 10228 10227 10227 10226 10226 10225 10224 10223 10223 10223 10224 10225 10225 10225 10225 10223 10223 10222 10220 10218 10217 10216 10215 10214 10214 10214 10214 10215 10216 10218 10220 10221 10222 10223 10227 10229 10230 10232 10236 10240 10242 10242 10243 10245 10246 10245 10245 10245 10248 10248 10247 10249 10254 10257 10257 10256 10259 10263 10266 10269 10273 10277 10281 10284 10288 10292 10296 10299 10302 10306 10309 10312
10232 10231 10231 10230 10229 10228 10227 10225 10223 10222 10222 10221 10219 10217 10215 10214 10213 10213 10212 10212 10211 10210 10210 10210 10210 10212 10212 10211 10210 10210 10210 10210 10208 10205 10203 10202 10201 10200 10198 10198 10199 10199 10200 10202 10203 10205 10207 10208 10210 10212 10214 10217 10221 10225 10226 10226 10227 10229 10230 10230 10230 10230 10232 10232 10234 10238 10243 10242 10240 10240 10244 10249 10252 10255 10260 10264 10267 10269 10272 10277 10281 10285 10289 10292 10296 10299
10219 10218 10218 10217 10216 10215 10213 10212 10210 10209 10208 10207 10205 10203 10202 10201 10200 10199 10198 10197 10197 10197 10196 10196 10197 10198 10198 10197 10195 10195 10197 10197 10195 10193 10191 10190 10188 10186 10184 10183 10183 10184 10185 10185 10187 10189 10191 10193 10195 10197 10198 10202 10206 10208 10208 10209 10211 10213 10215 10215 10215 10216 10218 10219 10221 10224 10226 10226 10225 10227 10230 10234 10237 10242 10246 10249 10251 10254 10258 10262 10267 10270 10274 10278 10282 10286
10206 10205 10205 10204 10203 10202 10200 10198 10197 10196 10195 10193 10192 10190 10189 10188 10187 10185 10184 10183 10183 10182 10182 10182 10182 10182 10183 10182 10182 10182 10183 10183 10182 10180 10178 10178 10176 10173 10171 10169 10168 10168 10169 10170 10171 10173 10175 10177 10180 10182 10185 10187 10190 10191 10192 10194 10196 10198 10198 10198 10200 10202 10205 10206 10207 10208 10210 10212 10213 10215 10217 10219 10223 10227 10230 10232 10235 10239 10245 10249 10252 10255 10259 10264 10268 10272
10192 10192 10191 10190 10189 10188 10187 10185 10183 10182 10182 10180 10178 10177 10175 10174 10173 10172 10170 10169 10168 10168 10168 10168 10167 10167 10167 10168 10168 10168 10168 10168 10168 10167 10166 10165 10164 10162 10159 10157 10155 10154 10154 10155 10156 10157 10159 10161 10164 10167 10170 10172 10174 10175 10177 10178 10181 10182 10183 10183 10186 10189 10192 10193 10193 10194 10197 10199 10200 10201 10202 10205 10208 10211 10213 10215 10220 10226 10232 10235 10237 10240 10245 10249 10254 10258
10178 10178 10177 10176 10175 10174 10173 10172 10170 10169 10168 10166 10164 10163 10162 10161 10160 10158 10157 10155 10154 10153 10153 10153 10153 10153 10153 10153 10153 10153 10154 10154 10154 10153 10153 10152 10152 10150 10147 10145 10143 10142 10140 10140 10141 10142 10143 10146 10148 10152 10155 10157 10159 10160 10161 10163 10165 10167 10169 10170 10172 10175 10178 10179 10180 10182 10185 10186 10187 10187 10187 10190 10193 10195 10197 10201 10207 10213 10217 10220 10222 10226 10230 10235 10239 10244
10165 10164 10163 10162 10161 10160 10159 10157 10156 10155 10154 10152 10151 10150 10148 10147 10146 10145 10143 10142 10141 10140 10140 10139 10139 10139 10139 10139 10139 10139 10140 10140 10140 10140 10139 10139 10138 10137 10135 10133 10131 10129 10128 10127 10127 10127 10128 10131 10133 10137 10140 10142 10144 10145 10146 10147 10149 10153 10156 10158 10160 10162 10163 10165 10168 10170 10172 10173 10173 10173 10174 10177 10179 10182 10185 10188 10193 10198 10202 10205 10210 10214 10217 10220 10224 10228
10151 10150 10148 10148 10147 10146 10145 10143 10142 10141 10140 10138 10137 10136 10135 10133 10132 10131 10130 10129 10128 10127 10126 10126 10126 10126 10126 10125 10125 10125 10125 10126 10126 10126 10125 10125 10125 10124 10123 10120 10118 10117 10116 10115 10114 10114 10115 10117 10119 10122 10125 10128 10130 10131 10130 10131 10133 10138 10142 10145 10147 10148 10150 10152 10154 10156 10157 10158 10160 10160 10162 10164 10166 10168 10172 10175 10179 10183 10187 10192 10198 10202 10204 10207 10210 10214